Location: Namasale
(1.5000°N, 32.6167°E)
Time: 08:59:31
(UTC+00:00)

Daily predictions for brighter satellites

Satellite Brightness Start Highest point End
(mag) Time Altitude Azimuth Time Altitude Azimuth Time Altitude Azimuth
ARIANE 5 R/B 4.3 15:57:34 10° W 16:01:38 74° N 16:32:51 10° E
ARIANE 5 R/B 4.3 15:57:35 10° W 16:01:38 74° N 16:32:51 10° E
ARIANE 5 R/B 4.3 15:57:34 10° W 16:01:39 74° N 16:32:51 10° E
BLOCK DM-SL R/B 3.4 16:09:23 10° W 16:14:36 77° S 16:20:54 10° E
Cosmos 1953 2.2 16:10:58 10° S 16:14:54 65° E 16:18:49 10° NNE
CZ-4 R/B 2.2 16:11:52 10° SE 16:15:13 27° ENE 16:18:30 10° NNE
Cosmos 1709 Rocket 4.4 16:10:10 10° NNE 16:15:44 37° E 16:21:18 10° SSE
STARLINK-1096 4.3 16:12:07 10° NNW 16:15:56 37° NE 16:19:46 10° SE
Skynet4D Del rocket 3.7 16:10:54 10° WSW 16:17:01 81° SSE 16:22:31 10° ENE
USA 81 4.1 16:13:09 10° N 16:18:25 83° E 16:23:42 10° S
Meteor 1-24 Rocket 3.5 16:13:49 10° N 16:19:05 75° E 16:24:27 10° S
ARIANE 5 R/B 2.9 16:16:28 10° WNW 16:19:59 50° N 16:23:57 10° E
STARLINK-1079 4.1 16:16:58 10° NNW 16:20:53 43° NE 16:24:49 10° SE
STARLINK-43 3.3 16:19:02 10° SSW 16:22:39 58° SE 16:26:16 10° NE
ASTRO E2 4.2 16:20:23 10° W 16:24:04 36° NNW 16:27:44 10° NE
STARLINK-1116 3.9 16:21:54 10° NNW 16:25:53 50° NE 16:29:54 10° SE
ATLAS 3B CENTAUR R/B 2.9 16:16:42 10° NW 16:26:59 56° NNE 16:31:08 13° E
Ariane H10+ 3.9 16:07:22 10° W 16:27:22 56° SSW 16:32:56 11° ESE
Ariane H10 2.9 16:23:56 10° W 16:27:44 43° N 16:30:34 10° ENE
BLOCK DM-SL R/B 3.1 16:08:40 10° W 16:27:48 81° S 16:30:58 13° E
ATLAS 5 CENTAUR R/B 4.3 16:25:18 10° WSW 16:28:11 19° WNW 16:31:03 10° NNW
GPS 2-12 Rocket1 3.5 16:23:52 10° WSW 16:28:38 62° NNW 16:33:20 10° ENE
Aureole 2 Rocket 4.4 16:29:31 10° ENE 16:29:49 10° ENE 16:29:49 10° ENE
CZ-2D R/B 4.0 16:27:20 10° SE 16:30:46 31° ENE 16:34:09 10° NNE
STARLINK-1094 3.6 16:31:42 10° NNW 16:35:48 69° NE 16:39:55 10° SE
Cosmos 1140 Rocket 3.4 16:32:58 10° S 16:38:10 71° ESE 16:43:20 10° NNE
Delta 2 Rocket 3.5 16:35:48 10° NW 16:39:58 81° SW 16:44:03 14° SE
USA 234 3.2 16:33:43 10° NE 16:40:12 69° SE 16:46:42 10° SSW
STARLINK-1117 3.5 16:36:39 10° NNW 16:40:46 81° NE 16:44:44 11° SE
Cosmos 1626 2.4 16:38:49 10° N 16:42:29 69° W 16:46:11 10° S
NATO 3D Rocket 4.0 16:37:44 10° WNW 16:42:43 61° SSW 16:48:06 15° ESE
Meteor 1-16 Rocket 4.1 16:38:10 10° S 16:43:29 89° W 16:48:51 10° N
STARLINK-1078 3.6 16:41:37 10° NW 16:45:45 86° SW 16:49:33 12° SSE
YAOGAN 1 2.5 16:45:10 10° SSE 16:49:29 70° ENE 16:53:46 10° N
STARLINK-1108 3.8 16:46:37 10° NW 16:50:43 74° SW 16:54:19 13° SSE
Cosmos 1190 Rocket 4.5 16:46:29 10° SSW 16:51:45 65° WNW 16:56:59 10° N
CSL-04 Debris 4.2 16:47:40 10° SSE 16:53:04 59° ENE 16:58:26 10° N
STARLINK-1071 4.0 16:51:37 10° NW 16:55:42 63° SW 16:59:07 14° SSE
Sylda 4400 3.6 16:53:07 10° WSW 16:58:41 48° S 16:59:40 35° SE
STARLINK-1110 4.3 16:56:38 10° NW 17:00:39 53° SW 17:03:55 15° SSE
Cosmos 1943 Rocket 2.4 16:58:54 10° N 17:04:15 47° ENE 17:07:12 25° SE
STPSAT 2 (USA 217) 4.5 16:59:52 10° S 17:04:20 64° ESE 17:08:45 10° NNE
Cosmos 2058 Rocket 3.0 17:05:16 10° S 17:09:42 61° E 17:14:08 10° NNE
Cosmos 1726 Rocket 3.9 17:08:16 10° SSW 17:12:35 64° W 17:16:55 10° N
CSL-04 Rocket 3.7 17:09:45 10° S 17:15:06 81° WSW 17:20:23 10° NNW
IRIDIUM 104 4.2 17:12:58 10° N 17:18:09 73° E 17:23:21 10° S
COSMOS 2406 4.3 17:13:53 10° S 17:16:36 25° SSE 17:16:36 25° SSE
Cosmos 2084 Rocket 3.4 17:16:01 10° NNW 17:20:27 67° ENE 17:20:40 66° E
Cosmos 2369 Rocket 2.3 17:15:53 10° N 17:21:17 49° ENE 17:21:42 48° E
BLOCK DM-SL R/B 2.6 17:18:35 10° W 17:22:36 83° S 17:23:16 61° ESE
Cosmos 1340 Rocket 3.3 17:19:08 10° SSW 17:23:10 60° W 17:27:09 10° N
Nadezhda 1 Rocket 4.4 17:20:50 10° SSW 17:27:09 66° W 17:33:29 10° N
IRIDIUM 114 4.2 17:22:05 10° N 17:27:17 87° W 17:32:31 10° S
CZ-2C R/B 3.6 17:24:20 10° N 17:28:52 84° WNW 17:33:20 10° SSW
GPS 2-15 Rocket1 4.3 17:24:52 10° NW 17:29:13 31° NNE 17:29:13 31° NNE
Cosmos 292 Rocket 3.7 17:24:27 10° NNW 17:29:18 86° WSW 17:30:34 50° S
Milstar 3 Cent rocket 4.2 17:22:14 10° WNW 17:30:36 66° SSW 17:41:13 27° SE
Meteor 1-21 Rocket 4.2 17:25:37 10° N 17:31:09 80° W 17:36:50 10° S
USA 215 4.4 17:27:31 10° SSE 17:33:33 40° SW 17:39:33 10° WNW
ARIANE 5 R/B 3.1 17:32:44 10° WSW 17:35:02 39° S 17:35:02 39° S
Cosmos 2184 Rocket 3.8 17:30:55 10° N 17:37:04 74° E 17:38:52 48° SSE
DMSP B5D2-2 3.9 17:32:33 10° NNE 17:37:47 82° ESE 17:43:04 10° S
Cosmos 1992 Rocket 4.0 17:36:25 10° NNW 17:41:35 76° W 17:42:12 66° SSW
Delta 2 Rocket 4.1 17:47:45 10° SW 17:52:45 58° SSW 17:52:45 58° SSW
H-2A R/B 3.7 18:13:13 28° NW 18:13:13 28° NW 18:15:42 10° NNW
Longmarch 3A Rocket 4.4 18:15:56 10° WNW 18:36:16 45° SW 18:36:16 45° SW
